Garrison, ND

2:35 AM CDT on May 23, 2018 (GMT -0500)
Garrison

Weather History for KN60 - October, 2013

Change the Weather History Date:

Saturday, October 5, 2013

  Actual Average Record
Temperature  
Mean Temperature 41 °F -  
Max Temperature 49 °F - 85 °F (2011)
Min Temperature 33 °F - 19 °F (2000)
Degree Days  
Heating Degree Days 24    
Month to date heating degree days 86  
Cooling Degree Days 0    
Month to date cooling degree days 0  
Year to date cooling degree days 373  
Moisture  
Dew Point 29 °F    
Average Humidity 64    
Maximum Humidity 82    
Minimum Humidity 46    
Precipitation  
Precipitation 0.00 in - 1.23 in (1998)
Month to date precipitation 0.00  
Year to date precipitation 25.56  
Sea Level Pressure  
Sea Level Pressure 30.14 in    
Wind  
Wind Speed 17 mph (North)    
Max Wind Speed 22 mph    
Max Gust Speed 35 mph    
T = Trace of Precipitation, MM = Missing Value Source: NWS Daily Summary

Daily Weather History Graph

Daily Weather History Graph

Search for Another Location

Airport or City:

Astronomy

Oct. 05, 2013 Rise Set
Actual Time 7:50 AM CDT 7:16 PM CDT
Civil Twilight 7:19 AM CDT 7:47 PM CDT
Nautical Twilight 6:44 AM CDT 8:22 PM CDT
Astronomical Twilight 6:08 AM CDT 8:58 PM CDT
Moon 8:37 AM CDT (10/5) 7:29 PM CDT (10/5)
Length of Visible Light 12h 27m
Length of Day
11h 25m
New Moon, 1% of the Moon is Illuminated
Oct 5
New Moon
Oct 11
First Quarter
Oct 18
Full
Oct 26
Last Quarter
Nov 3
New

Hourly Weather History & Observations

Time (CDT) Temp. Windchill Dew Point Humidity Pressure Visibility Wind Dir Wind Speed Gust Speed Precip Events Conditions
12:52 AM 37.9 °F 28.2 °F 28.9 °F 70% 30.22 in - NNE 18.4 mph 31.1 mph N/A   Unknown
1:52 AM 37.0 °F 27.7 °F 30.0 °F 76% 30.20 in - NNE 16.1 mph 24.2 mph N/A   Unknown
2:52 AM 37.0 °F 28.9 °F 30.0 °F 76% 30.18 in - NNE 12.7 mph 26.5 mph N/A   Unknown
3:52 AM 36.0 °F 26.0 °F 30.0 °F 79% 30.16 in - NNE 17.3 mph 29.9 mph N/A   Unknown
4:52 AM 36.0 °F 26.0 °F 30.0 °F 79% 30.16 in - NNE 17.3 mph 31.1 mph N/A   Unknown
5:52 AM 36.0 °F 26.7 °F 30.0 °F 79% 30.16 in - North 15.0 mph 29.9 mph N/A   Unknown
6:52 AM 35.1 °F 24.5 °F 30.0 °F 82% 30.16 in - North 18.4 mph 24.2 mph N/A   Unknown
7:52 AM 34.0 °F 23.0 °F 28.0 °F 79% 30.16 in - North 18.4 mph 25.3 mph N/A   Unknown
8:52 AM 34.0 °F 22.7 °F 28.9 °F 82% 30.14 in - North 19.6 mph 31.1 mph N/A   Unknown
9:52 AM 34.0 °F 25.0 °F 28.0 °F 79% 30.15 in - North 12.7 mph 24.2 mph N/A   Unknown
10:52 AM 35.1 °F 27.4 °F 30.0 °F 82% 30.16 in - North 10.4 mph 24.2 mph N/A   Unknown
11:52 AM 36.0 °F 28.0 °F 28.9 °F 76% 30.16 in - North 11.5 mph 24.2 mph N/A   Unknown
12:52 PM 37.9 °F 27.6 °F 30.9 °F 76% 30.14 in - North 20.7 mph 26.5 mph N/A   Unknown
1:52 PM 45.0 °F 36.6 °F 32.0 °F 60% 30.11 in - North 21.9 mph 34.5 mph N/A   Unknown
2:52 PM 45.0 °F 36.6 °F 32.0 °F 60% 30.09 in - NNW 21.9 mph 26.5 mph N/A   Unknown
3:52 PM 48.0 °F - 33.1 °F 56% 30.07 in - North 19.6 mph 29.9 mph N/A   Unknown
4:52 PM 48.0 °F - 32.0 °F 54% 30.08 in - North 18.4 mph 25.3 mph N/A   Unknown
5:52 PM 48.9 °F - 28.9 °F 46% 30.08 in - North 13.8 mph 21.9 mph N/A   Unknown
6:52 PM 46.0 °F 41.0 °F 28.0 °F 50% 30.10 in - North 10.4 mph - N/A   Unknown
7:52 PM 36.0 °F 30.3 °F 28.0 °F 73% 30.12 in - NNW 6.9 mph - N/A   Unknown
8:52 PM 33.1 °F 26.1 °F 27.0 °F 78% 30.13 in - NNW 8.1 mph - N/A   Unknown
9:52 PM 30.9 °F 23.5 °F 26.1 °F 82% 30.12 in - NNW 8.1 mph - N/A   Unknown
10:52 PM 30.0 °F 23.2 °F 26.1 °F 85% 30.11 in - NW 6.9 mph - N/A   Unknown
11:52 PM 30.0 °F 25.2 °F 26.1 °F 85% 30.10 in - NW 4.6 mph - N/A   Unknown